Latest Coastal Weather Observations for Flinders Reef

IDQ60701

Issued at 1:25 pm EST Thursday 31 July 2014 (issued every 10 minutes, with the page automatically refreshed every 10 minutes)

About coastal observations | Map of coastal stations | Coastal observations for QLD | Marine services | Other Formats
Station Details ID: 200783 Name: FLINDERS REEF Lat: -17.72 Lon: 148.45 Height: 2.6 m
Data from the previous 72 hours. | See also: Recent months at Flinders Reef
Date/Time
EST
Temp

°C
Wind Pressure Rain
since 9am
mm
Weather Cloud Vis
km
Sea
Height
m
Swell
Dir
 
Speed
knots
Gust
knots
hPa Trend Height
m
Period
s
Dir
31/01:24pm 24.4 SE 8 8 1016.3 - - - - - - - - -
31/01:00pm 23.8 SE 8 9 1016.8 - - - - - - - - -
31/12:30pm 24.0 E 9 10 1017.1 - - - - - - - - -
31/12:24pm 23.8 E 9 - 1017.0 - - - - - - - - -
31/12:00pm 23.6 ESE 10 11 1017.4 - - - - - - - - -
31/11:30am 23.8 ESE 10 11 1017.8 - - - - - - - - -
31/11:24am 23.6 ESE 10 - 1017.8 - - - - - - - - -
31/11:00am 23.6 ESE 11 13 1018.1 - - - - - - - - -
31/10:30am 24.3 ESE 10 13 1018.3 - - - - - - - - -
31/10:24am 23.9 ESE 11 - 1018.2 - - - - - - - - -
31/10:00am 24.4 E 6 15 1018.4 - - - - - - - - -
31/09:30am 24.6 E 9 11 1018.4 - - - - - - - - -
31/09:24am 24.6 E 9 - 1018.4 - - - - - - - - -
31/09:00am 23.9 E 10 15 1018.5 - - - - - - - - -
31/08:30am 24.3 E 10 12 1018.3 - - - - - - - - -
31/08:24am 24.6 E 8 - 1018.2 - - - - - - - - -
31/08:00am 23.6 E 13 15 1018.1 - - - - - - - - -
 
Date/Time
EST
Temp

°C
Wind Pressure Rain
since 9am
mm
Weather Cloud Vis
km
Sea
Height
m
Swell
Dir
 
Speed
knots
Gust
knots
hPa Trend Height
m
Period
s
Dir
30/10:30pm 23.7 E 16 18 1018.7 - - - - - - - - -
30/10:24pm 23.6 E 16 - 1018.5 - - - - - - - - -
30/10:00pm 23.7 E 16 19 1018.6 - - - - - - - - -
30/09:30pm 23.8 E 16 18 1018.8 - - - - - - - - -
30/09:24pm 23.7 E 16 - 1018.7 - - - - - - - - -
30/09:00pm 23.6 E 16 19 1018.7 - - - - - - - - -
30/08:30pm 23.7 E 17 20 1018.5 - - - - - - - - -
30/08:24pm 23.7 E 17 - 1018.3 - - - - - - - - -
30/08:00pm 23.6 ESE 17 20 1018.3 - - - - - - - - -
30/07:30pm 23.9 ESE 17 19 1018.1 - - - - - - - - -
30/07:24pm 23.9 E 16 - 1017.9 - - - - - - - - -
30/07:00pm 23.7 E 17 19 1017.7 - - - - - - - - -
30/06:30pm 23.9 E 17 22 1017.5 - - - - - - - - -
30/06:24pm 23.8 E 17 - 1017.3 - - - - - - - - -
30/06:00pm 23.8 ESE 17 20 1017.3 - - - - - - - - -
30/05:30pm 23.8 ESE 17 18 1017.2 - - - - - - - - -
30/05:24pm 23.8 ESE 16 - 1017.1 - - - - - - - - -
30/05:00pm 23.7 ESE 15 18 1017.2 - - - - - - - - -
30/04:30pm 23.8 ESE 16 19 1017.1 - - - - - - - - -
30/04:24pm 23.9 ESE 17 - 1017.0 - - - - - - - - -
30/04:00pm 23.9 ESE 16 20 1017.0 - - - - - - - - -
30/03:30pm 23.8 SE 16 20 1016.9 - - - - - - - - -
30/03:24pm 24.0 SE 16 - 1016.9 - - - - - - - - -
30/03:00pm 24.1 ESE 16 19 1017.0 - - - - - - - - -
30/02:30pm 24.0 ESE 17 19 1017.1 - - - - - - - - -
30/02:24pm 23.8 ESE 17 - 1017.0 - - - - - - - - -
30/02:00pm 23.6 E 18 21 1017.3 - - - - - - - - -
30/01:30pm 23.8 ESE 17 19 1017.6 - - - - - - - - -
30/01:24pm 23.7 ESE 17 - 1017.7 - - - - - - - - -
30/01:00pm 23.8 ESE 18 20 1018.1 - - - - - - - - -
30/12:30pm 23.8 ESE 17 19 1018.6 - - - - - - - - -
30/12:24pm 23.9 ESE 17 - 1018.6 - - - - - - - - -
30/12:00pm 24.0 ESE 17 20 1019.1 - - - - - - - - -
30/11:30am 24.0 ESE 16 19 1019.5 - - - - - - - - -
30/11:24am 24.1 ESE 16 - 1019.5 - - - - - - - - -
30/11:00am 24.1 ESE 17 19 1019.8 - - - - - - - - -
30/10:30am 24.0 ESE 17 19 1020.1 - - - - - - - - -
30/10:24am 24.0 ESE 17 - 1020.0 - - - - - - - - -
30/10:00am 24.0 ESE 16 19 1020.3 - - - - - - - - -
30/09:30am 24.2 ESE 16 19 1020.4 - - - - - - - - -
30/09:24am 24.2 ESE 17 - 1020.3 - - - - - - - - -
30/09:00am 24.2 ESE 16 19 1020.4 - - - - - - - - -
30/08:30am 24.1 ESE 16 18 1020.3 - - - - - - - - -
30/08:24am 24.1 ESE 16 - 1020.2 - - - - - - - - -
30/08:00am 24.0 ESE 15 17 1020.0 - - - - - - - - -
 
Date/Time
EST
Temp

°C
Wind Pressure Rain
since 9am
mm
Weather Cloud Vis
km
Sea
Height
m
Swell
Dir
 
Speed
knots
Gust
knots
hPa Trend Height
m
Period
s
Dir
29/10:30pm 23.5 E 14 16 1020.0 - - - - - - - - -
29/10:24pm 23.5 E 14 - 1019.9 - - - - - - - - -
29/10:00pm 23.4 E 15 17 1020.2 - - - - - - - - -
29/09:30pm 23.7 E 14 17 1020.1 - - - - - - - - -
29/09:24pm 23.6 E 15 - 1019.9 - - - - - - - - -
29/09:00pm 23.8 E 15 18 1019.8 - - - - - - - - -
29/08:30pm 23.6 E 16 18 1019.4 - - - - - - - - -
29/08:24pm 23.7 E 15 - 1019.2 - - - - - - - - -
29/08:00pm 23.6 ESE 15 17 1019.2 - - - - - - - - -
29/07:30pm 23.5 E 16 18 1018.9 - - - - - - - - -
29/07:24pm 23.5 E 15 - 1018.8 - - - - - - - - -
29/07:00pm 23.9 E 14 16 1018.8 - - - - - - - - -
29/06:30pm 24.0 E 14 16 1018.7 - - - - - - - - -
29/06:24pm 23.9 E 14 - 1018.5 - - - - - - - - -
29/06:00pm 23.6 E 14 16 1018.4 - - - - - - - - -
29/05:30pm 23.3 E 14 15 1018.4 - - - - - - - - -
29/05:24pm 23.1 E 14 - 1018.2 - - - - - - - - -
29/05:00pm 23.1 E 15 17 1018.2 - - - - - - - - -
29/04:30pm 22.3 SE 13 17 1018.1 - - - - - - - - -
29/04:24pm 23.2 SE 11 - 1017.9 - - - - - - - - -
29/04:00pm 23.0 SE 10 12 1017.9 - - - - - - - - -
29/03:30pm 22.9 SE 11 14 1017.9 - - - - - - - - -
29/03:24pm 23.0 SE 11 - 1017.8 - - - - - - - - -
29/03:00pm 22.6 SE 13 16 1017.9 - - - - - - - - -
29/02:30pm 22.7 SE 11 15 1018.1 - - - - - - - - -
29/02:24pm 22.7 SE 12 - 1018.1 - - - - - - - - -
29/02:00pm 22.5 SE 13 16 1018.5 - - - - - - - - -
29/01:30pm 22.5 SE 16 18 1018.8 - - - - - - - - -
29/01:24pm 22.6 SE 17 - 1018.7 - - - - - - - - -
29/01:00pm 22.6 SE 17 20 1019.0 - - - - - - - - -
29/12:30pm 23.4 ESE 15 18 1019.5 - - - - - - - - -
29/12:24pm 23.5 ESE 16 - 1019.4 - - - - - - - - -
29/12:00pm 23.2 SE 16 20 1019.8 - - - - - - - - -
29/11:30am 23.0 ESE 18 21 1020.0 - - - - - - - - -
29/11:24am 23.2 ESE 18 - 1020.0 - - - - - - - - -
29/11:00am 23.4 ESE 16 19 1020.2 - - - - - - - - -
29/10:30am 23.1 SE 19 22 1020.5 - - - - - - - - -
29/10:24am 23.4 SE 18 - 1020.4 - - - - - - - - -
29/10:00am 23.6 ESE 15 17 1020.7 - - - - - - - - -
29/09:30am 23.7 ESE 15 17 1020.8 - - - - - - - - -
29/09:24am 23.5 ESE 15 - 1020.7 - - - - - - - - -
29/09:00am 23.7 ESE 15 17 1020.7 - - - - - - - - -
29/08:30am 23.7 ESE 15 19 1020.5 - - - - - - - - -
29/08:24am 23.5 ESE 15 - 1020.3 - - - - - - - - -
29/08:00am 23.4 ESE 16 19 1020.3 - - - - - - - - -
29/07:30am 23.3 ESE 16 20 1019.9 - - - - - - - - -
29/07:24am 23.4 ESE 16 - 1019.8 - - - - - - - - -
29/01:00am 22.9 SE 18 20 1019.2 - - - - - - - - -
29/12:30am 23.1 ESE 17 19 1019.5 - - - - - - - - -
29/12:24am 23.3 ESE 17 - 1019.4 - - - - - - - - -
29/12:00am 23.2 SE 17 20 1019.5 - - - - - - - - -
 
Date/Time
EST
Temp

°C
Wind Pressure Rain
since 9am
mm
Weather Cloud Vis
km
Sea
Height
m
Swell
Dir
 
Speed
knots
Gust
knots
hPa Trend Height
m
Period
s
Dir
28/11:30pm 23.2 ESE 17 20 1019.5 - - - - - - - - -
28/11:24pm 23.1 ESE 17 - 1019.4 - - - - - - - - -
28/11:00pm 23.0 ESE 18 21 1019.5 - - - - - - - - -
28/10:30pm 23.3 ESE 19 22 1019.5 - - - - - - - - -
28/10:24pm 23.2 ESE 19 - 1019.4 - - - - - - - - -
28/10:00pm 23.1 ESE 19 23 1019.7 - - - - - - - - -
28/09:30pm 23.6 ESE 18 22 1019.7 - - - - - - - - -
28/09:24pm 23.3 ESE 18 - 1019.6 - - - - - - - - -
28/09:00pm 23.3 E 17 20 1019.8 - - - - - - - - -
28/08:30pm 23.3 E 16 19 1019.7 - - - - - - - - -
28/08:24pm 23.4 E 15 - 1019.7 - - - - - - - - -
28/08:00pm 23.3 E 14 17 1019.7 - - - - - - - - -
28/07:30pm 23.3 E 16 20 1019.4 - - - - - - - - -
28/07:24pm 23.4 E 16 - 1019.2 - - - - - - - - -
28/07:00pm 23.4 E 16 19 1019.0 - - - - - - - - -
28/06:30pm 23.4 E 16 18 1018.9 - - - - - - - - -
28/06:24pm 23.4 E 16 - 1018.7 - - - - - - - - -
28/06:00pm 23.6 E 15 18 1018.6 - - - - - - - - -
28/05:30pm 23.6 ESE 15 18 1018.4 - - - - - - - - -
28/05:24pm 23.6 ESE 15 - 1018.2 - - - - - - - - -
28/05:00pm 23.5 ESE 16 19 1018.1 - - - - - - - - -
28/04:30pm 23.5 E 17 19 1018.0 - - - - - - - - -
28/04:24pm 23.4 ESE 16 - 1018.0 - - - - - - - - -
28/04:00pm 23.6 ESE 16 19 1017.9 - - - - - - - - -
28/03:30pm 23.8 ESE 16 20 1017.9 - - - - - - - - -
28/03:24pm 23.6 ESE 17 - 1017.8 - - - - - - - - -
28/03:00pm 23.7 ESE 18 21 1017.9 - - - - - - - - -
28/02:30pm 23.7 ESE 19 23 1018.1 - - - - - - - - -
28/02:24pm 23.9 ESE 19 - 1018.1 - - - - - - - - -
28/02:00pm 23.8 E 20 23 1018.3 - - - - - - - - -
28/01:30pm 23.6 ESE 21 25 1018.5 - - - - - - - - -

Other Formats:

Comma delimited format used in spreadsheet applications
http://www.bom.gov.au/fwo/IDQ60701/IDQ60701.94290.axf

JavaScript Object Notation format (JSON) in row-major order
http://www.bom.gov.au/fwo/IDQ60701/IDQ60701.94290.json